sat.trackr.live / text

‹ back to catalog

STARLINK-2099

NORAD 47379 · 2021-005AG

PAYLOAD ACTIVE UNKNOWN

§ Identity

Operator
Country
US
Launch date
2021-01-20
Launch site
AFETR
Launch vehicle
Mass (kg)
RCS (m²)

Purposes: comms

External: N2YO · Heavens-Above · Gunter

§ Orbital elements

Epoch: 2026-09-20T03:53:17.963808Z

Period
94.01 min
Inclination
53.1610°
Eccentricity
0.0001325
Mean motion
15.31710516 rev/d
Perigee alt
469.8 km
Apogee alt
471.6 km
Semi-major
6,848.8 km
B*
5.6858e-5
RAAN
188.5015°
Arg perigee
102.2657°
Mean anomaly
257.8493°
Rev number
31,352

§ Raw data

STARLINK-20991 47379U 21005AG  26263.16201347  .00001400  00000+0  56858-4 0  99912 47379  53.1610 188.5015 0001325 102.2657 257.8493 15.31710516313522

JSON: /api/v1/satellites/47379 · /tle

For live sub-satellite position, see the globe view (requires WebGL).

§ Visibility from observer

Set your observer location to see the next 7 days of passes ≥ 10°. The values pass through the URL so the page stays shareable.

No JS? Fill the form by hand. The geolocation button needs JavaScript.